Angleton, TX

5:32 AM CDT on August 21, 2019 (GMT -0500)
Brazoria County

Weather History for KLBX - June, 2019

Change the Weather History Date:

Thursday, June 6, 2019

  Actual Average Record
Temperature  
Mean Temperature 81 °F -  
Max Temperature 93 °F 86 °F 99 °F (2011)
Min Temperature 71 °F 70 °F 66 °F (2006)
Cooling Degree Days 16    
Growing Degree Days 31 (Base 50)    
Moisture  
Dew Point 73 °F    
Average Humidity 86    
Maximum Humidity 94    
Minimum Humidity 59    
Precipitation  
Precipitation 0.58 in - - ()
Sea Level Pressure  
Sea Level Pressure 29.77 in    
Wind  
Wind Speed 5 mph (WSW)    
Max Wind Speed 24 mph    
Max Gust Speed 36 mph    
Visibility 8 miles    
Events Rain , Thunderstorm    
Averages and records for this station are not official NWS values.
T = Trace of Precipitation, MM = Missing Value Source: NWS Daily Summary

Daily Weather History Graph

Daily Weather History Graph

Search for Another Location

Airport or City:

Astronomy

Jun. 06, 2019 Rise Set
Actual Time 6:22 AM CDT 8:18 PM CDT
Civil Twilight 5:55 AM CDT 8:45 PM CDT
Nautical Twilight 5:23 AM CDT 9:18 PM CDT
Astronomical Twilight 4:48 AM CDT 9:52 PM CDT
Moon 9:30 AM CDT (6/6) 11:41 PM CDT (6/6)
Length of Visible Light 14h 50m
Length of Day
13h 56m
Waxing Crescent, 14% of the Moon is Illuminated
Jun 6
Waxing Crescent
Jun 10
First Quarter
Jun 17
Full
Jun 25
Last Quarter
Jul 2
New

Hourly Weather History & Observations

Time (CDT) Temp. Heat Index Dew Point Humidity Pressure Visibility Wind Dir Wind Speed Gust Speed Precip Events Conditions
12:53 AM 75.9 °F - 73.9 °F 94% 29.76 in 10.0 mi Calm Calm - N/A   Overcast
1:15 AM 75.9 °F - 73.9 °F 94% 29.76 in 10.0 mi Calm Calm - N/A   Overcast
1:51 AM 75.2 °F - 73.4 °F 94% 29.78 in 10.0 mi NW 3.5 mph - N/A   Overcast
1:53 AM 75.9 °F - 73.9 °F 94% 29.78 in 10.0 mi NW 3.5 mph - N/A   Overcast
2:53 AM 75.0 °F - 73.0 °F 94% 29.75 in 10.0 mi WSW 3.5 mph - N/A   Partly Cloudy
3:19 AM 75.0 °F - 73.0 °F 94% 29.75 in 10.0 mi WNW 3.5 mph - N/A   Mostly Cloudy
3:53 AM 75.0 °F - 73.0 °F 94% 29.76 in 10.0 mi Calm Calm - N/A   Overcast
4:53 AM 75.0 °F - 73.0 °F 94% 29.76 in 10.0 mi NNW 3.5 mph - N/A   Scattered Clouds
5:04 AM 75.0 °F - 73.0 °F 94% 29.76 in 10.0 mi Calm Calm - N/A   Mostly Cloudy
5:53 AM 75.0 °F - 73.0 °F 94% 29.78 in 10.0 mi NW 3.5 mph - N/A   Overcast
6:44 AM 75.0 °F - 73.0 °F 94% 29.80 in 1.8 mi Variable 4.6 mph - 0.06 in Rain Rain
6:51 AM 75.2 °F - 73.4 °F 94% 29.79 in 2.5 mi NNW 5.8 mph - 0.06 in Rain Light Rain
6:53 AM 75.9 °F - 73.0 °F 91% 29.80 in 5.0 mi NW 4.6 mph - 0.07 in Rain Light Rain
7:06 AM 75.9 °F - 73.0 °F 91% 29.80 in 10.0 mi NNW 5.8 mph - 0.00 in   Overcast
7:14 AM 75.9 °F - 73.9 °F 94% 29.79 in 10.0 mi NNW 3.5 mph - 0.00 in   Mostly Cloudy
7:53 AM 77.0 °F - 73.0 °F 88% 29.78 in 6.0 mi North 5.8 mph - 0.00 in Rain Light Rain
8:10 AM 75.9 °F - 73.0 °F 91% 29.78 in 10.0 mi Calm Calm - 0.00 in Rain Light Rain
8:26 AM 77.0 °F - 73.9 °F 90% 29.77 in 10.0 mi South 4.6 mph - 0.00 in   Mostly Cloudy
8:39 AM 78.1 °F - 73.0 °F 84% 29.76 in 10.0 mi South 8.1 mph - 0.00 in   Scattered Clouds
8:53 AM 78.1 °F - 73.9 °F 87% 29.76 in 10.0 mi South 8.1 mph - 0.00 in   Clear
9:53 AM 84.0 °F 91.9 °F 75.0 °F 74% 29.75 in 10.0 mi South 5.8 mph - N/A   Clear
10:53 AM 84.0 °F 91.9 °F 75.0 °F 74% 29.77 in 10.0 mi Variable 3.5 mph - N/A   Clear
11:53 AM 87.1 °F 97.3 °F 75.9 °F 69% 29.78 in 10.0 mi Variable 4.6 mph - N/A   Clear
12:53 PM 89.1 °F 100.2 °F 75.9 °F 65% 29.77 in 10.0 mi SSW 5.8 mph - N/A   Clear
1:53 PM 91.0 °F 102.9 °F 75.9 °F 61% 29.77 in 9.0 mi Calm Calm - N/A   Clear
2:53 PM 91.9 °F 103.9 °F 75.9 °F 59% 29.76 in 10.0 mi Variable 5.8 mph - N/A   Partly Cloudy
3:53 PM 91.0 °F 109.1 °F 80.1 °F 70% 29.74 in 10.0 mi South 9.2 mph - N/A   Mostly Cloudy
4:53 PM 90.0 °F 107.9 °F 80.1 °F 73% 29.72 in 10.0 mi South 12.7 mph - N/A   Partly Cloudy
5:53 PM 90.0 °F 105.8 °F 79.0 °F 70% 29.70 in 10.0 mi South 11.5 mph - N/A   Mostly Cloudy
6:53 PM 86.0 °F 96.9 °F 77.0 °F 74% 29.69 in 10.0 mi South 10.4 mph - N/A Thunderstorm Clear
7:31 PM 75.0 °F - 70.0 °F 84% 29.82 in 2.5 mi North 21.9 mph 33.4 mph 0.10 in Rain , Thunderstorm Heavy Rain
7:34 PM 73.9 °F - 70.0 °F 87% 29.82 in 1.5 mi North 18.4 mph 33.4 mph 0.15 in Rain , Thunderstorm Heavy Thunderstorms and Rain
7:42 PM 72.0 °F - 69.1 °F 91% 29.83 in 1.2 mi North 24.2 mph 35.7 mph 0.29 in Rain , Thunderstorm Heavy Thunderstorms and Rain
7:53 PM 71.1 °F - 69.1 °F 93% 29.78 in 1.5 mi NNE 21.9 mph 28.8 mph 0.47 in Rain , Thunderstorm Heavy Thunderstorms and Rain
7:58 PM 72.0 °F - 68.0 °F 87% 29.79 in 3.0 mi NE 13.8 mph 28.8 mph 0.01 in Rain , Thunderstorm Rain
8:13 PM 72.0 °F - 66.9 °F 84% 29.81 in 10.0 mi Variable 4.6 mph - 0.01 in Rain , Thunderstorm Light Thunderstorms and Rain
8:46 PM 72.0 °F - 68.0 °F 87% 29.80 in 10.0 mi SE 10.4 mph - 0.03 in Rain , Thunderstorm Light Rain
8:53 PM 72.0 °F - 69.1 °F 91% 29.79 in 10.0 mi SE 9.2 mph - 0.03 in Rain , Thunderstorm Light Rain
9:04 PM 72.0 °F - 68.0 °F 87% 29.81 in 10.0 mi South 9.2 mph - 0.01 in Rain , Thunderstorm Light Thunderstorms and Rain
9:22 PM 72.0 °F - 68.0 °F 87% 29.79 in 10.0 mi SSE 13.8 mph - 0.01 in Rain , Thunderstorm Light Rain
9:53 PM 73.0 °F - 70.0 °F 90% 29.78 in 10.0 mi SSE 9.2 mph - 0.01 in   Clear
10:53 PM 73.0 °F - 69.1 °F 87% 29.77 in 10.0 mi WSW 4.6 mph - N/A   Clear
11:53 PM 73.0 °F - 70.0 °F 90% 29.78 in 10.0 mi Calm Calm - N/A   Clear